Poplar Bluff, MO

11:28 AM CDT on July 19, 2019 (GMT -0500)
Poplar Bluff Municipal

Weather History for KPOF - May, 2019

Change the Weather History Date:

Monday, May 6, 2019

  Actual Average Record
Temperature  
Mean Temperature 61 °F -  
Max Temperature 71 °F 77 °F 93 °F (2012)
Min Temperature 52 °F 53 °F 38 °F (1944)
Degree Days  
Heating Degree Days 4    
Growing Degree Days 11 (Base 50)    
Moisture  
Dew Point 57 °F    
Average Humidity 84    
Maximum Humidity 100    
Minimum Humidity 63    
Precipitation  
Precipitation 0.00 in - - ()
Sea Level Pressure  
Sea Level Pressure 30.02 in    
Wind  
Wind Speed 2 mph (SSE)    
Max Wind Speed 9 mph    
Max Gust Speed -    
Visibility 10 miles    
Events Rain    
Averages and records for this station are not official NWS values.
T = Trace of Precipitation, MM = Missing Value Source: NWS Daily Summary

Daily Weather History Graph

Daily Weather History Graph

Search for Another Location

Airport or City:

Astronomy

May. 06, 2019 Rise Set
Actual Time 6:02 AM CDT 7:54 PM CDT
Civil Twilight 5:34 AM CDT 8:22 PM CDT
Nautical Twilight 4:59 AM CDT 8:56 PM CDT
Astronomical Twilight 4:23 AM CDT 9:33 PM CDT
Moon 7:24 AM CDT (5/6) 9:50 PM CDT (5/6)
Length of Visible Light 14h 48m
Length of Day
13h 51m
Waxing Crescent, 3% of the Moon is Illuminated
May 6
Waxing Crescent
May 11
First Quarter
May 18
Full
May 26
Last Quarter
Jun 3
New

Hourly Weather History & Observations

Time (CDT) Temp. Dew Point Humidity Pressure Visibility Wind Dir Wind Speed Gust Speed Precip Events Conditions
12:53 AM 57.0 °F 55.9 °F 96% 29.95 in 10.0 mi Calm Calm - N/A   Clear
2:53 AM 55.0 °F 54.0 °F 96% 29.96 in 10.0 mi North 3.5 mph - N/A   Clear
3:53 AM 54.0 °F 53.1 °F 97% 29.98 in 10.0 mi Calm Calm - N/A   Clear
4:53 AM 52.0 °F 52.0 °F 100% 30.00 in 8.0 mi SW 3.5 mph - N/A   Clear
5:53 AM 52.0 °F 52.0 °F 100% 30.00 in 8.0 mi Calm Calm - N/A   Clear
6:53 AM 54.0 °F 53.1 °F 97% 30.00 in 9.0 mi Calm Calm - N/A   Clear
7:53 AM 57.9 °F 57.0 °F 97% 30.03 in 10.0 mi Calm Calm - N/A   Clear
8:53 AM 61.0 °F 57.9 °F 90% 30.05 in 10.0 mi Calm Calm - N/A   Clear
9:53 AM 64.0 °F 60.1 °F 87% 30.06 in 10.0 mi South 3.5 mph - N/A   Clear
10:53 AM 66.9 °F 57.9 °F 73% 30.05 in 10.0 mi SSE 9.2 mph - N/A   Clear
11:53 AM 66.9 °F 57.0 °F 70% 30.05 in 10.0 mi South 8.1 mph - N/A   Partly Cloudy
12:53 PM 66.9 °F 57.9 °F 73% 30.06 in 10.0 mi WSW 5.8 mph - 0.00 in Rain Light Rain
1:53 PM 68.0 °F 57.0 °F 68% 30.05 in 10.0 mi Calm Calm - 0.00 in   Overcast
2:53 PM 68.0 °F 57.0 °F 68% 30.04 in 10.0 mi South 4.6 mph - N/A   Overcast
3:53 PM 66.9 °F 57.9 °F 73% 30.04 in 10.0 mi SE 3.5 mph - N/A   Overcast
4:53 PM 70.0 °F 57.0 °F 63% 30.03 in 10.0 mi ENE 3.5 mph - N/A   Overcast
5:53 PM 69.1 °F 55.9 °F 63% 30.03 in 10.0 mi SE 4.6 mph - N/A   Scattered Clouds
6:53 PM 69.1 °F 57.9 °F 68% 30.02 in 10.0 mi Calm Calm - N/A   Overcast
7:53 PM 66.9 °F 61.0 °F 81% 30.03 in 10.0 mi Calm Calm - N/A   Overcast
8:53 PM 64.0 °F 61.0 °F 90% 30.04 in 10.0 mi Calm Calm - N/A   Mostly Cloudy
9:53 PM 61.0 °F 59.0 °F 93% 30.04 in 10.0 mi Calm Calm - N/A   Clear
10:53 PM 60.1 °F 59.0 °F 96% 30.02 in 10.0 mi Calm Calm - N/A   Clear
11:53 PM 59.0 °F 59.0 °F 100% 30.02 in 9.0 mi North 3.5 mph - N/A   Clear